Monett, MO

10:22 AM CDT on June 28, 2017 (GMT -0500)
Monett

Weather History for KHFJ - December, 2012

Change the Weather History Date:

Thursday, December 6, 2012

  Actual Average (KJLN) Record (KJLN)
Temperature  
Mean Temperature 50 °F -  
Max Temperature 60 °F 46 °F 71 °F (1998)
Min Temperature 39 °F 30 °F -1 °F (1950)
Degree Days  
Heating Degree Days 16    
Moisture  
Dew Point 43 °F    
Average Humidity 73    
Maximum Humidity 87    
Minimum Humidity 55    
Precipitation  
Precipitation 0.00 in - - ()
Sea Level Pressure  
Sea Level Pressure 29.90 in    
Wind  
Wind Speed 8 mph (SSE)    
Max Wind Speed 12 mph    
Max Gust Speed -    
Visibility 10 miles    
Events      
Averages and records for this station are not official NWS values.
T = Trace of Precipitation, MM = Missing Value Source: NWS Daily Summary

Daily Weather History Graph

Daily Weather History Graph

Search for Another Location

Airport or City:

Trip Planner

Search our weather history database for the weather conditions in past years. The results will help you decide how hot, cold, wet, or windy it might be!

Date:

Astronomy

Dec. 06, 2012 Rise Set
Actual Time 7:15 AM CST 4:59 PM CST
Civil Twilight 6:46 AM CST 5:28 PM CST
Nautical Twilight 6:14 AM CST 6:00 PM CST
Astronomical Twilight 5:42 AM CST 6:31 PM CST
Moon No Moon Rise 12:16 PM CST (12/6)
Length of Visible Light 10h 41m
Length of Day
9h 43m
Waning Gibbous, 49% of the Moon is Illuminated
Dec 6
Waning Gibbous
Dec 13
New
Dec 19
First Quarter
Dec 28
Full
Jan 4
Last Quarter

Hourly Weather History & Observations

Time (CST) Temp. Windchill Dew Point Humidity Pressure Visibility Wind Dir Wind Speed Gust Speed Precip Events Conditions
7:35 AM 39.2 °F 33.0 °F 33.8 °F 81% 29.98 in 10.0 mi ESE 9.2 mph - N/A   Clear
7:55 AM 41.0 °F 35.2 °F 35.6 °F 81% 29.97 in 10.0 mi ESE 9.2 mph - N/A   Clear
8:15 AM 42.8 °F 37.5 °F 35.6 °F 76% 29.96 in 10.0 mi SE 9.2 mph - N/A   Clear
8:35 AM 42.8 °F 37.5 °F 37.4 °F 81% 29.97 in 10.0 mi SE 9.2 mph - N/A   Clear
8:55 AM 44.6 °F 39.7 °F 37.4 °F 76% 29.96 in 10.0 mi SE 9.2 mph - N/A   Clear
9:15 AM 46.4 °F 41.9 °F 39.2 °F 76% 29.96 in 10.0 mi SE 9.2 mph - N/A   Clear
9:35 AM 50.0 °F - 41.0 °F 71% 29.96 in 10.0 mi SSE 9.2 mph - N/A   Clear
9:55 AM 50.0 °F - 42.8 °F 76% 29.96 in 10.0 mi SSE 11.5 mph - N/A   Clear
10:15 AM 51.8 °F - 42.8 °F 71% 29.96 in 10.0 mi SSE 10.4 mph - N/A   Clear
10:35 AM 50.0 °F - 42.8 °F 76% 29.95 in 10.0 mi SSE 9.2 mph - N/A   Clear
10:55 AM 53.6 °F - 44.6 °F 72% 29.95 in 10.0 mi SE 10.4 mph - N/A   Clear
11:15 AM 53.6 °F - 44.6 °F 72% 29.94 in 10.0 mi SSE 10.4 mph - N/A   Clear
11:35 AM 55.4 °F - 44.6 °F 67% 29.93 in 10.0 mi SSE 9.2 mph - N/A   Clear
11:55 AM 55.4 °F - 44.6 °F 67% 29.92 in 10.0 mi South 9.2 mph - N/A   Clear
12:15 PM 55.4 °F - 44.6 °F 67% 29.91 in 10.0 mi SSE 9.2 mph - N/A   Clear
12:35 PM 57.2 °F - 44.6 °F 63% 29.91 in 10.0 mi SSE 9.2 mph - N/A   Clear
12:55 PM 57.2 °F - 44.6 °F 63% 29.89 in 10.0 mi SE 6.9 mph - N/A   Clear
1:15 PM 59.0 °F - 44.6 °F 59% 29.88 in 10.0 mi SE 9.2 mph - N/A   Clear
1:35 PM 59.0 °F - 46.4 °F 63% 29.87 in 10.0 mi SSE 8.1 mph - N/A   Clear
1:55 PM 59.0 °F - 46.4 °F 63% 29.86 in 10.0 mi SE 8.1 mph - N/A   Clear
2:15 PM 60.8 °F - 44.6 °F 55% 29.85 in 10.0 mi SE 10.4 mph - N/A   Clear
2:35 PM 60.8 °F - 46.4 °F 59% 29.84 in 10.0 mi SE 9.2 mph - N/A   Clear
2:55 PM 60.8 °F - 44.6 °F 55% 29.84 in 10.0 mi SE 9.2 mph - N/A   Clear
3:15 PM 60.8 °F - 44.6 °F 55% 29.84 in 10.0 mi SE 8.1 mph - N/A   Clear
3:35 PM 60.8 °F - 44.6 °F 55% 29.84 in 10.0 mi SE 6.9 mph - N/A   Clear
3:55 PM - - - N/A% - - North - - N/A   Unknown
4:15 PM - - - N/A% - - North - - N/A   Unknown
4:35 PM - - - N/A% - - North - - N/A   Unknown
7:15 PM 50.0 °F - 44.6 °F 82% 29.84 in 10.0 mi SSE 5.8 mph - N/A   Clear
7:35 PM 48.2 °F - 44.6 °F 87% 29.87 in 10.0 mi WSW 5.8 mph - N/A   Clear
7:55 PM 48.2 °F - 44.6 °F 87% 29.87 in 10.0 mi SSW 3.5 mph - N/A   Clear
8:35 PM 48.2 °F - 42.8 °F 82% 29.88 in 10.0 mi South 3.5 mph - N/A   Clear
8:55 PM 50.0 °F - 42.8 °F 76% 29.88 in 10.0 mi SSW 4.6 mph - N/A   Clear
9:15 PM 50.0 °F - 42.8 °F 76% 29.88 in 10.0 mi SSW 4.6 mph - N/A   Scattered Clouds
9:35 PM 48.2 °F - 42.8 °F 82% 29.88 in 10.0 mi South 4.6 mph - N/A   Scattered Clouds
9:55 PM 48.2 °F - 42.8 °F 82% 29.88 in 10.0 mi South 4.6 mph - N/A   Overcast
10:15 PM 50.0 °F - 42.8 °F 76% 29.88 in 10.0 mi SSE 3.5 mph - N/A   Overcast
10:35 PM 48.2 °F - 42.8 °F 82% 29.88 in 10.0 mi SSE 4.6 mph - N/A   Overcast
10:55 PM 48.2 °F - 42.8 °F 82% 29.88 in 10.0 mi SSE 4.6 mph - N/A   Overcast
11:15 PM 50.0 °F - 44.6 °F 82% 29.88 in 10.0 mi South 6.9 mph - N/A   Overcast
11:35 PM 50.0 °F - 46.4 °F 87% 29.88 in 10.0 mi SSW 6.9 mph - N/A   Overcast
11:55 PM 51.8 °F - 46.4 °F 82% 29.88 in 10.0 mi SSW 8.1 mph - N/A   Overcast